weather.gov     
National Weather Service

Regional Weather Roundup
NWS Homepage
This page is being discontinued on March 12, 2014.
The same data is available at this site. Please update your bookmarks.
Thank you, and we apologize for the inconvenience.
Please send an email to SR-SRH.Webmaster@noaa.gov with any concerns.


Current Version
Previous Version:    01  02  03  04  05  06  07  08  09  
[Printable]
130
ASUS42 KTBW 211410
RWRFL
FLORIDA REGIONAL WEATHER ROUNDUP
NATIONAL WEATHER SERVICE TAMPA BAY RUSKIN FL
1000 AM EDT SUN SEP 21 2014

NOTE: "FAIR" INDICATES FEW OR NO CLOUDS BELOW 12,000 FEET WITH NO
SIGNIFICANT WEATHER AND/OR OBSTRUCTIONS TO VISIBILITY.


FLZ001>010-012>015-112-114-115-211500-
PANHANDLE FLORIDA

CITY           SKY/WX    TMP DP  RH WIND       PRES   REMARKS
PENSACOLA      SUNNY     76  68  76 NE7       30.03R
PENSACOLA NAS  SUNNY     79  71  76 NE9       30.02R
MILTON NAS     SUNNY     76  66  71 E9        30.04S
CRESTVIEW      SUNNY     75  69  81 NE5       30.06R
DUKE FIELD     FAIR      75  71  87 E2        30.05R
VALPARAISO     MOSUNNY   77  66  70 E8        30.04R
MARY ESTHER    SUNNY     78  66  67 E10       30.03R
TRI COUNTY     FAIR      75  68  78 MISG      30.06R
PANAMA CITY    FAIR      76  66  71 NE7       30.04R
TYNDALL AFB    SUNNY     75  69  80 VRB6      30.05R
APALACHICOLA   SUNNY     80  69  69 E8        30.04R

STATION/POSITION SKY/WX   TEMP    WIND        PRES    WAVE   SWELL
                          AIR SEA DIR/SP/G            HT/PER HT/PER
                          (F)     (DEG/KT/KT) (MB)    (FT/S) (FT/S)
30.1N   87.6W              81 85   90/ 14/ 16 1016.2R   3/ 5
29.2N   88.2W              82 84   80/ 16/ 17 1015.6S   3/ 5
28.8N   86.0W              81 84   80/ 16/ 17 1015.4F   4/ 5
PANAMA CITY BEAC           75 84  120/ 10/ 13 1017.0R
CAPE SAN BLAS    NOT AVBL
TOWER C                    78      80/ 13/ 14 1016.9R
28.5N   84.5W              80 84   70/ 14/ 16 1015.9R   3/ 5

$$
FLZ011-016>038-118-127-128-134-139-239-211500-
NORTH FLORIDA

CITY           SKY/WX    TMP DP  RH WIND       PRES   REMARKS
MARIANNA       SUNNY     75  70  84 E3        30.05R
TALLAHASSEE    MOSUNNY   76  65  68 E5        30.05R
PERRY          SUNNY     73  61  64 CALM      30.05S
CROSS CITY       N/A     77  66  68 NE5       30.04R
LAKE CITY      FAIR      73  64  73 CALM      30.05R
GAINESVILLE    SUNNY     76  66  71 VRB5      30.04R
MAYPORT NAS    SUNNY     77  67  71 CALM      30.03R
JACKSONVILLE   MOSUNNY   74  66  76 NW3       30.03R
JAX NAS        MOSUNNY   76  63  64 N6        30.04R
JAX CRAIG      SUNNY     76  65  68 N3        30.03R
JAX CECIL      SUNNY     73  64  73 N3        30.04R
ST AUGUSTINE   SUNNY     78  70  76 N5        30.03S

STATION/POSITION SKY/WX   TEMP    WIND        PRES    WAVE   SWELL
                          AIR SEA DIR/SP/G            HT/PER HT/PER
                          (F)     (DEG/KT/KT) (MB)    (FT/S) (FT/S)
SHELL POINT                71      40/  3/  5   N/A
KEATON BEACH               74      80/  5/  6 1017.6R
CEDAR KEY                  73      50/  8/ 10 1017.2R
FERNANDINA                 73 81  350/  5/  6 1016.2R
30.7N   81.3W                 83                N/A     4/ 9
MAYPORT                    74 82  340/  5/  6   N/A
31.4N   80.9W              76 83  340/ 10/ 14 1016.1R   4/ 6   3/ 6
ST AUGUSTINE               76     330/  8/ 10 1017.5R

$$
FLZ040-043>046-052-053-057-058-063-144-211500-
INTERIOR CENTRAL FLORIDA

CITY           SKY/WX    TMP DP  RH WIND       PRES   REMARKS
OCALA          SUNNY     77  66  69 NE6       30.04R
THE VILLAGES     N/A     77  70  78 CALM      29.94R HAZE
LEESBURG       SUNNY     78  69  73 NE5       30.04R
SANFORD        MOSUNNY   78  71  79 N7        30.03R
ORLANDO EXEC   MOSUNNY   78  72  81 NE5       30.03R
ORLANDO INTL   PTSUNNY   78  73  84 N3        30.02S
KISSIMMEE      MOSUNNY   77  73  88 CALM      30.03R
WINTER HAVEN   CLOUDY    76  72  87 CALM      30.04R
LAKELAND       PTSUNNY   75  75 100 E6        30.03S
BARTOW         DRIZZLE   73  73 100 CALM      30.03R FOG
OKEECHOBEE       N/A     73  73 100 MISG      30.03R

$$
FLZ041-047-054-059-064-141-147-211500-
EAST CENTRAL FLORIDA

CITY           SKY/WX    TMP DP  RH WIND       PRES   REMARKS
ORMOND BEACH   SUNNY     75  72  88 CALM      30.03R
DAYTONA BEACH  MOSUNNY   76  71  85 CALM      30.03R
DELAND         MOSUNNY   75  72  88 N3        30.04S
NEW SMYRNA BEA SUNNY     75  72  88 N7        30.01S
JFK SPACE CTR  PTSUNNY   75  72  90 VRB2      30.02R
TITUSVILLE     MOSUNNY   75  73  94 NW5       30.02R
CAPE CANAVERAL SUNNY     78  73  85 N7        30.00S
PATRICK AFB    MOSUNNY   78  74  89 NW7       30.02R
MELBOURNE      MOSUNNY   81  73  76 W3        30.02R
VERO BEACH     SUNNY     74  73  97 W3        30.02R
FT PIERCE      PTSUNNY   80  72  76 S5        30.02R
STUART         PTSUNNY   75  73  94 CALM      30.03R

STATION/POSITION SKY/WX   TEMP    WIND        PRES    WAVE   SWELL
                          AIR SEA DIR/SP/G            HT/PER HT/PER
                          (F)     (DEG/KT/KT) (MB)    (FT/S) (FT/S)
28.5N   80.2W              78 84  300/  8/ 10 1016.1R
28.9N   78.5W              80 84  310/  6/  8 1015.5R   4/ 8   3/ 8
TRIDENT PIER               78 84  320/  5/  7 1015.6F
28.4N   80.5W                 83                N/A     2/10
27.6N   80.2W                 83                N/A     2/ 9

$$
FLZ050-056-061-142-242-148-248-149-249-151-251-155-255-
160-260-211500-
WEST CENTRAL FLORIDA

CITY           SKY/WX    TMP DP  RH WIND       PRES   REMARKS
CRYSTAL RIVER  FAIR      77  66  69 NE5       30.03S
INVERNESS      FAIR      77  59  53 NE6       30.04R
BROOKSVILLE    SUNNY     76  71  85 NE6       30.04R
ZEPHYRHILLS    CLOUDY    66  64  94 CALM      30.04R
CLEARWATER     MOSUNNY   77  72  84 E8        30.02R
TAMPA INTL     PTSUNNY   76  70  82 NE6       30.03R
TAMPA EXEC     CLOUDY    77  72  83 NE3       30.03S
PLANT CITY     CLOUDY    75 N/A N/A E8        30.05R
MACDILL AFB    MOSUNNY   79  76  91 NE7       30.02R
ST PETERSBURG  MOSUNNY   77  73  87 E8        30.00R
SARASOTA       MOSUNNY   79  74  84 E8        29.99S
VENICE           N/A    N/A N/A N/A MISG        N/A

STATION/POSITION SKY/WX   TEMP    WIND        PRES    WAVE   SWELL
                          AIR SEA DIR/SP/G            HT/PER HT/PER
                          (F)     (DEG/KT/KT) (MB)    (FT/S) (FT/S)
CEDAR KEY                  73      50/  8/ 10 1017.2R
28.5N   84.5W              80 84   70/ 14/ 16 1015.9R   3/ 5
27.3N   84.3W                 85                N/A     2/ 5
CLEARWATER BEACH NOT AVBL
MIDDLE TAMPA BAY           76     110/  7/  9 1016.5R
VENICE                     76 84   30/  5/  5 1015.7R

$$
FLZ066-069-070-075>078-162-262-165-265-211500-
SOUTHWEST FLORIDA AND KEYS

CITY           SKY/WX    TMP DP  RH WIND       PRES   REMARKS
PUNTA GORDA    PTSUNNY   78  75  90 CALM      30.03R
FT MYERS       CLOUDY    77  74  90 S5        30.00R
SOUTHWEST INTL CLOUDY    79  61  53 S6        30.01R
NAPLES         PTSUNNY   83  75  77 SE6       30.00S
MARCO ISLAND   SUNNY     81  75  83 SE3       30.01S
MARATHON       CLOUDY    83  76  79 CALM      30.00S
KEY WEST NAS   CLOUDY    84  75  74 SE6       30.00S
KEY WEST INTL  CLOUDY    84  74  71 SE5       30.01R

STATION/POSITION SKY/WX   TEMP    WIND        PRES    WAVE   SWELL
                          AIR SEA DIR/SP/G            HT/PER HT/PER
                          (F)     (DEG/KT/KT) (MB)    (FT/S) (FT/S)
VENICE                     76 84   30/  5/  5 1015.7R
NAPLES                     82 87  150/  4/  5 1016.5S
DRY TORTUGAS               83     120/  7/  8 1015.8R
NW FL BAY                  82     180/  3/  4 1015.9R
SAND KEY                   82     100/  4/  6 1016.0R
SOMBRERO KEY               83     160/  2/  3 1016.8R
LONG KEY                   83 84  200/  4/  5 1016.7R
MOLASSES REEF              83 85  160/  2/  2 1016.1F

$$
FLZ067-068-071>074-168-172>174-211500-
SOUTHEAST FLORIDA

CITY           SKY/WX    TMP DP  RH WIND       PRES   REMARKS
W PALM BEACH   CLOUDY    79  74  84 W5        30.01R
FT LAUDER-EXEC PTSUNNY   81  75  82 CALM      30.01S
FT LAUDERDALE  PTSUNNY   81  71  71 CALM      30.01R
POMPANO BEACH  PTSUNNY   81  72  74 CALM      30.02R
PEMBROKE PINES MOSUNNY   82  73  74 CALM      30.02S
OPA LOCKA      MOSUNNY   81  70  69 NW3       30.02S
MIAMI          PTSUNNY   81  71  71 N3        30.02R
WEST KENDALL   MOSUNNY   85  71  63 MISG      30.01S
HOMESTEAD      MOSUNNY   82  71  68 CALM      30.01S

STATION/POSITION SKY/WX   TEMP    WIND        PRES    WAVE   SWELL
                          AIR SEA DIR/SP/G            HT/PER HT/PER
                          (F)     (DEG/KT/KT) (MB)    (FT/S) (FT/S)
PORT EVERGLADES            82     300/  2/  3 1016.4
VIRGINIA KEY               81 84  350/  4/  6   N/A
LAKE WORTH                 79 85  250/  5/  6 1016.2S
FOWEY ROCKS                81 85  340/  5/  6 1016.6R
SETTLEMENT POINT           81     270/  7/  8 1016.9R

$$





U.S. Dept. of Commerce
NOAA National Weather Service
1325 East West Highway
Silver Spring, MD 20910
E-mail: w-nws.webmaster@noaa.gov
Page last modified: May 16, 2007
NATIONAL WEATHER SERVICE: for Safety, for Work, for Fun - FOR LIFE